Regional Weather Roundup
Issued by NWS

Home | Current Version | Previous Version | Text Only | Print | Product List | Glossary Off
Versions: 1 2 3 4 5 6 7 8 9 10 11 12 13 14 15 16 17 18 19 20 21 22 23 24 25 26 27 28 29 30 31 32 33 34 35 36 37 38 39 40 41 42 43 44 45 46 47 48 49 50

000
ASUS43 KMPX 292210
RWRMN
WEATHER ROUNDUP FOR MINNESOTA
NATIONAL WEATHER SERVICE TWIN CITIES/CHANHASSEN MN
500 PM CDT TUE JUL 29 2014


NOTE: "FAIR" INDICATES FEW OR NO CLOUDS BELOW 12,000 FEET WITH NO
SIGNIFICANT WEATHER AND/OR OBSTRUCTIONS TO VISIBILITY. N/A MEANS
CURRENT SKY AND/OR WEATHER CONDITIONS ARE NOT AVAILABLE.

MNZ060>063-068>070-292300-
   Twin Cities Metro

CITY           SKY/WX    TMP DP  RH WIND       PRES   REMARKS
TWIN CITIES    MOSUNNY   79  54  41 W16       30.05F
ST PAUL        CLOUDY    76  55  48 NW13      30.04F
CRYSTAL        CLOUDY    80  53  39 W15       30.04F
BLAINE         MOSUNNY   77  57  50 NW12      30.06S
LAKEVILLE      MOSUNNY   75  55  50 W12       30.06F
EDEN PRAIRIE   MOSUNNY   80  55  42 NW13G20   30.05F
SOUTH ST PAUL  PTSUNNY   77  54  45 W8        30.04F
LAKE ELMO      FAIR      77  59  53 NW8       30.05F
$$
MNZ001>005-007-008-013>017-022>024-027-028-292300-
   Northwest Minnesota

CITY           SKY/WX    TMP DP  RH WIND       PRES   REMARKS
BEMIDJI        MOSUNNY   74  53  47 NW12      30.10F
HALLOCK        SUNNY     79  52  38 NW8       30.11F
ROSEAU         SUNNY     77  59  53 NW9       30.09F
WARROAD        SUNNY     77  57  50 NW12      30.08F
THIEF RVR FALL MOSUNNY   75  54  46 NW14      30.12F
CROOKSTON      MOSUNNY   75  55  50 NW9       30.12F
FOSSTON        PTSUNNY   73  55  53 NW8       30.12F
DETROIT LAKES  SUNNY     73  50  43 NW9G16    30.14F
MOORHEAD       SUNNY     77  54  44 N8        30.13S
PARK RAPIDS    MOSUNNY   76  52  43 NW14G22   30.10F
$$
MNZ006-009>011-018-025>026-292300-
   North Central Minnesota

CITY           SKY/WX    TMP DP  RH WIND       PRES   REMARKS
BAUDETTE       SUNNY     77  54  44 NW10      30.07F
FLAG ISLAND    MOSUNNY   75  54  46 NW16      30.05S
INTL FALLS     MOSUNNY   71  60  68 W7        30.03F
WASKISH        SUNNY     75  59  57 W8        30.07F
BIG FORK       MOSUNNY   75  54  46 NW9       30.06S
LONGVILLE      SUNNY     73  55  53 NW10      30.08F
GRAND RAPIDS   MOSUNNY   73  54  49 NW13      30.06S
CRANE LAKE     HVY RAIN  66  59  77 N8G20     30.05R
ORR            MOSUNNY   75  52  43 NW9G18    30.01R
COOK           MOSUNNY   75  55  50 NW7       30.03S
$$
MNZ012-019>021-037-292300-
   Northeast Minnesota

CITY           SKY/WX    TMP DP  RH WIND       PRES   REMARKS
DULUTH         TSTM      63  57  81 N12G21    30.06R
ELY            MOSUNNY   73  54  49 N13G18    30.01S
HIBBING        SUNNY     74  56  53 W9        30.04F
EVELETH        MOSUNNY   72  59  64 W8        30.03F
DULUTH HARBOR  CLOUDY    64  57  77 N21G36    30.03R
TWO HARBORS    PTSUNNY   63  57  82 W5        30.00F
SILVER BAY     PTSUNNY   68  61  77 CALM      29.99S
GRAND MARAIS     N/A     59  56  89 NE6       29.99R
G MARAIS ARPRT TSTM      54  48  82 N7        30.04R
$$
MNZ029>031-032-039>041-046>048-054>057-064-292300-
   West Central Minnesota

CITY           SKY/WX    TMP DP  RH WIND       PRES   REMARKS
FERGUS FALLS   PTSUNNY   75  50  41 N8        30.12F
WHEATON        SUNNY     73  54  49 W7        30.15F
MORRIS         SUNNY     75  54  46 W8        30.12F
ALEXANDRIA     MOSUNNY   76  53  44 W16       30.14F
ELBOW LAKE     FAIR      74  55  50 NW8       30.13F
WADENA         MOSUNNY   73  54  49 NW12      30.10F
GLENWOOD       MOSUNNY   75  54  46 NW14      30.13F
APPLETON       SUNNY     77  52  41 N8        30.13F
BENSON         MOSUNNY   77  54  44 N9        30.12F
ORTONVILLE     SUNNY     75  50  41 N8        30.13F
MADISON        SUNNY     79  54  41 N9        30.13F
WILLMAR        FAIR      77  52  41 W10       30.13F
$$
MNZ033>034-036-042>043-049>051-058-059-292300-
   Central Minnesota

CITY           SKY/WX    TMP DP  RH WIND       PRES   REMARKS
ST CLOUD       MOSUNNY   82  54  37 NW12G18   30.07F
SAUK CENTRE    FAIR      74  53  46 W13G18    30.11F
PAYNESVILLE    MOSUNNY   75  49  39 SW9       30.11S
AITKIN         SUNNY     77  55  47 NW6       30.06S
PINE RIVER     SUNNY     75  55  50 NW10      30.11F
BRAINERD       MOSUNNY   75  52  44 NW13G22   30.08F
STAPLES        MOSUNNY   75  48  38 W12G18    30.10F
LONG PRAIRIE   FAIR      73  52  46 NW13G18   30.11F
LITTLE FALLS   MOSUNNY   75  50  41 NW9       30.09S
LITCHFIELD     MOSUNNY   79  55  44 W10G16    30.10F
BUFFALO        MOSUNNY   78  53  42 W10G17    30.08F
MAPLE LAKE     SUNNY     76  58  51 W10       30.08F
$$
MNZ037-044-045-052-053-292300-
   East Central Minnesota

CITY           SKY/WX    TMP DP  RH WIND       PRES   REMARKS
PRINCETON      MOSUNNY   79  55  44 NW12      30.06F
MORA           MOSUNNY   73  54  49 NW8G16    30.07S
CAMBRIDGE      SUNNY     79  59  50 NW10      30.04F
RUSH CITY      SUNNY     76  58  52 NW8G16    30.05S
MOOSE LAKE     MOSUNNY   77  55  47 N9G16     30.02S
HINCKLEY       FAIR      73  59  60 NW7       30.05S
CLOQUET        SUNNY     75  50  41 W14G23    30.03S
MCGREGOR       SUNNY     77  54  44 NW12G20   30.06S
$$
MNZ071>073-080-081-089-090-097-098-292300-
   Southwest Minnesota

CITY           SKY/WX    TMP DP  RH WIND       PRES   REMARKS
MONTEVIDEO     MOSUNNY   79  55  44 N9        30.13F
GRANITE FALLS  SUNNY     76  54  47 NW10      30.14F
CANBY          MOSUNNY   78  52  40 NW9       30.15F
MARSHALL       SUNNY     75  52  43 N9        30.13F
REDWOOD FALLS  SUNNY     75  52  44 NW8       30.11F
OLIVIA         MOSUNNY   77  54  44 W12       30.11F
PIPESTONE      MOSUNNY   73  52  46 N5        30.16F
WINDOM         SUNNY     75  54  46 NW8       30.14F
WORTHINGTON    SUNNY     73  52  46 N6        30.16F
JACKSON        SUNNY     73  52  46 NW8       30.15F
TRACY          SUNNY     75  55  48 N7        30.14F
SLAYTON        MOSUNNY   74  50  42 CALM      30.16F
$$
MNZ065>067-074>077-082>085-091>093-292300-
   South Central Minnesota

CITY           SKY/WX    TMP DP  RH WIND       PRES   REMARKS
MANKATO        MOSUNNY   75  52  43 W10       30.10S
NEW ULM        SUNNY     77  54  44 NW9G16    30.11F
ST JAMES       MOSUNNY   79  52  38 W9        30.13S
FAIRMONT       SUNNY     75  46  35 W9G16     30.13S
GLENCOE        MOSUNNY   77  52  41 W17       30.08F
FARIBAULT      SUNNY     81  45  28 W12       30.08F
OWATONNA       SUNNY     77  52  41 W12G17    30.09S
WASECA         SUNNY     77  50  38 NW8       30.11F
ALBERT LEA     PTSUNNY   75  52  43 W9        30.10F
$$
MNZ078>079-086>088-094>096-292300-
   Southeast Minnesota

CITY           SKY/WX    TMP DP  RH WIND       PRES   REMARKS
ROCHESTER      MOSUNNY   76  54  46 W10       30.08F
RED WING       MOSUNNY   79  55  44 N5        30.03F
STANTON        MOSUNNY   79  54  41 W13       30.05F
DODGE CENTER   SUNNY     75  54  46 NW12      30.08F
WINONA         MOSUNNY   79  54  41 NW9       30.03F
AUSTIN         MOSUNNY   75  54  46 NW10G16   30.08F
PRESTON        MOSUNNY   74  61  62 NW13G20   30.08S
$$
ABBREVIATIONS USED IN REMARKS
   TC - TEMPERATURES IN CELSIUS
  WCI - WIND CHILL INDEX
   HX - HEAT INDEX
  VSB - VISIBILITY
$$


USA.gov is the U.S. government's official web portal to all federal, state and local government web resources and services.